KJ6TAG Weather Reports


time (UTC)temp
C
wind
direction
speed
KPH
gust
KPH
rain 1hr
cm
rain 24hr
cm
rain mn
cm
humidity
%
barometer
mb
20260506213046 26 76 4.8 14.5 0.00 0.00 0.00 24 1016.6
20260506211551 26 42 6.4 17.7 0.00 0.00 0.00 23 1016.7
20260506210042 26 17 4.8 19.3 0.00 0.00 0.00 23 1016.8
20260506204540 25 271 4.8 19.3 0.00 0.00 0.00 26 1016.9
20260506203040 26 59 9.7 17.7 0.00 0.00 0.00 25 1016.9
20260506201540 25 186 0.0 17.7 0.00 0.00 0.00 24 1017.0
20260506200044 25 269 6.4 17.7 0.00 0.00 0.00 24 1017.1
20260506194546 25 25 8.0 14.5 0.00 0.00 0.00 27 1017.2
20260506193049 24 90 3.2 14.5 0.00 0.00 0.00 28 1017.4
20260506191542 23 44 1.6 9.7 0.00 0.00 0.00 31 1017.4
20260506190042 22 243 3.2 20.9 0.00 0.00 0.00 31 1017.7
20260506184546 22 0 6.4 12.9 0.00 0.00 0.00 34 1017.9
20260506183043 22 46 3.2 16.1 0.00 0.00 0.00 34 1017.9
20260506181557 22 17 4.8 11.3 0.00 0.00 0.00 33 1018.1
20260506180043 21 38 3.2 12.9 0.00 0.00 0.00 37 1018.2
20260506174538 20 133 1.6 9.7 0.00 0.00 0.00 36 1018.2
20260506173054 20 263 3.2 12.9 0.00 0.00 0.00 37 1018.3
20260506171553 20 104 3.2 11.3 0.00 0.00 0.00 40 1018.2
20260506170050 19 0 1.6 9.7 0.00 0.00 0.00 39 1018.3
20260506164542 18 40 3.2 12.9 0.00 0.00 0.00 42 1018.1
20260506163043 17 245 4.8 14.5 0.00 0.00 0.00 44 1018.1
20260506161542 17 269 6.4 14.5 0.00 0.00 0.00 45 1018.0
20260506160052 16 199 6.4 12.9 0.00 0.00 0.00 47 1018.1
20260506154548 15 203 4.8 14.5 0.00 0.00 0.00 51 1018.1
20260506153042 15 190 9.7 19.3 0.00 0.00 0.00 54 1018.2
20260506151547 13 198 9.7 17.7 0.00 0.00 0.00 58 1018.2
20260506150051 13 179 8.0 19.3 0.00 0.00 0.00 61 1018.1
20260506144544 12 171 9.7 19.3 0.00 0.00 0.00 62 1018.1
20260506143045 12 168 1.6 6.4 0.00 0.00 0.00 65 1018.1
20260506141541 11 229 1.6 9.7 0.00 0.00 0.00 66 1018.1
20260506140042 11 211 4.8 14.5 0.00 0.00 0.00 67 1017.8
20260506134541 11 190 8.0 19.3 0.00 0.00 0.00 68 1017.6
20260506133041 10 197 4.8 16.1 0.00 0.00 0.00 70 1017.5
20260506131555 10 200 4.8 11.3 0.00 0.00 0.00 70 1017.2
20260506130046 10 202 4.8 8.0 0.00 0.00 0.00 70 1017.3
20260506124544 10 197 3.2 8.0 0.00 0.00 0.00 69 1017.4
20260506123044 10 219 4.8 8.0 0.00 0.00 0.00 69 1017.4
20260506121542 10 232 4.8 11.3 0.00 0.00 0.00 69 1017.0
20260506120041 10 195 4.8 12.9 0.00 0.00 0.00 68 1017.1
20260506114542 10 205 8.0 14.5 0.00 0.00 0.00 68 1016.7
20260506113042 10 217 9.7 16.1 0.00 0.00 0.00 68 1016.8
20260506111540 10 175 8.0 14.5 0.00 0.00 0.00 68 1016.7
20260506110040 10 202 9.7 19.3 0.00 0.00 0.00 68 1016.7
20260506104547 10 190 6.4 16.1 0.00 0.00 0.00 68 1016.6
20260506103042 11 179 6.4 17.7 0.00 0.00 0.00 68 1016.7
20260506101544 11 205 11.3 19.3 0.00 0.00 0.00 67 1016.6
20260506100042 11 202 9.7 16.1 0.00 0.00 0.00 67 1016.6
20260506094551 11 207 9.7 17.7 0.00 0.00 0.00 67 1016.7
20260506093041 11 203 11.3 22.5 0.00 0.00 0.00 66 1016.7
20260506091541 10 226 9.7 25.7 0.00 0.00 0.00 66 1016.6
20260506090039 11 225 6.4 16.1 0.00 0.00 0.00 66 1016.7
20260506084545 11 201 8.0 16.1 0.00 0.00 0.00 66 1016.9
20260506083044 11 194 8.0 17.7 0.00 0.00 0.00 66 1016.6
20260506081543 11 203 8.0 20.9 0.00 0.00 0.00 66 1017.0
20260506073050 11 207 9.7 17.7 0.00 0.00 0.00 67 1016.8
20260506071547 11 198 11.3 20.9 0.00 0.00 0.00 67 1016.7
20260506061541 11 208 14.5 24.1 0.00 0.00 0.00 66 1016.1
20260506044544 11 220 11.3 20.9 0.00 0.00 0.00 66 1015.9
20260506043040 11 188 11.3 19.3 0.00 0.00 0.00 65 1015.6
20260506041547 12 206 11.3 20.9 0.00 0.00 0.00 65 1015.4
20260506040046 12 213 11.3 19.3 0.00 0.00 0.00 65 1015.4
20260506034543 12 212 11.3 24.1 0.00 0.00 0.00 64 1015.1
20260506033041 12 211 11.3 19.3 0.00 0.00 0.00 64 1015.0
20260506031541 12 195 9.7 17.7 0.00 0.00 0.00 63 1014.9
20260506030047 12 217 12.9 22.5 0.00 0.00 0.00 62 1014.5
20260506024550 12 234 12.9 25.7 0.00 0.00 0.00 62 1014.3
20260506023044 13 257 16.1 27.4 0.00 0.00 0.00 61 1014.0
20260506021540 13 236 12.9 27.4 0.00 0.00 0.00 59 1013.9
20260506020041 13 225 16.1 30.6 0.00 0.00 0.00 59 1013.8
20260506014543 13 235 20.9 32.2 0.00 0.00 0.00 58 1013.8
20260506013050 14 227 19.3 33.8 0.00 0.00 0.00 56 1013.7
20260506011544 15 232 17.7 29.0 0.00 0.00 0.00 55 1013.7
20260506010043 15 225 22.5 33.8 0.00 0.00 0.00 53 1013.6
20260506004541 15 233 17.7 32.2 0.00 0.00 0.00 52 1013.3
20260506003040 16 245 22.5 33.8 0.00 0.00 0.00 50 1013.1
20260506001541 16 209 19.3 35.4 0.00 0.00 0.00 49 1013.0
20260506000044 16 200 20.9 35.4 0.00 0.00 0.00 48 1012.8
20260505224541 16 238 24.1 37.0 0.00 0.00 0.00 48 1012.9
20260505223047 17 232 16.1 30.6 0.00 0.00 0.00 46 1012.7
20260505221543 17 229 20.9 32.2 0.00 0.00 0.00 45 1012.9
20260505220043 16 230 19.3 38.6 0.00 0.00 0.00 46 1013.1
20260505214540 16 198 16.1 33.8 0.00 0.00 0.00 47 1013.2
20260505213053 16 240 19.3 40.2 0.00 0.00 0.00 48 1013.4